This demonstration page uses our WeatherBlox Daily Observations layout. Learn more.

Left ArrowRight Arrow

39.12711, -84.51439

Hourly Observations for July 21, 2021

Temp ( °F °C ) Dew Point ( °F °C ) Humidity (%) Winds ( mph kmh ) Pressure ( in mb ) Visibility ( mi km ) Precip ( " mm )
12:53 am 00:53 Clear 68 20 65 18.3 90 90 N N/A 30.01 1016 8 13 N/A
1:53 am 01:53 Clear 66 18.9 65 18.3 96 96 N N/A 30.00 1016 7 11 N/A
2:53 am 02:53 Clear with Mist and Fog 65 18.3 64 17.8 97 97 N N/A 29.98 1015 6 10 N/A
3:53 am 03:53 Clear 64 17.8 63 17.2 96 96 N N/A 29.98 1015 7 11 N/A
4:53 am 04:53 Clear with Mist and Fog 63 17.2 62 16.7 97 97 N N/A 29.99 1016 5 8 N/A
5:53 am 05:53 Clear with Mist and Fog 63 17.2 62 16.7 97 97 N N/A 30.00 1016 6 10 N/A
6:06 am 06:06 Clear with Mist and Fog 63 17.2 62 16.7 97 97 ENE 3 6 30.01 1016 2 3 N/A
6:15 am 06:15 Clear with Mist and Fog 63 17.2 62 16.7 97 97 N N/A 30.01 1016 3 5 N/A
6:44 am 06:44 Sunny with Mist and Fog 62 16.7 61 16.1 96 96 N N/A 30.02 1017 2 3 N/A
6:53 am 06:53 Sunny with Mist and Fog 63 17.2 62 16.7 97 97 N N/A 30.02 1017 4 6 N/A
7:53 am 07:53 Sunny with Mist and Fog 66 18.9 64 17.8 93 93 N N/A 30.04 1017 5 8 N/A
8:53 am 08:53 Hazy 72 22.2 66 18.9 82 82 NNE 5 7 30.05 1018 6 10 N/A
9:53 am 09:53 Hazy 74 23.3 66 18.9 76 76 NNE 3 6 30.07 1018 6 10 N/A
10:53 am 10:53 Hazy 73 22.8 66 18.9 79 79 NE 7 11 30.09 1019 5 8 N/A
11:00 am 11:00 Cloudy with Haze 74 23.3 67 19.4 79 79 NE 5 7 30.08 1019 5 8 N/A
11:53 am 11:53 Cloudy with Haze 76 24.4 67 19.4 74 74 N 7 11 30.10 1019 5 8 N/A
12:43 pm 12:43 Hazy 79 26.1 67 19.4 67 67 N 5 7 30.09 1019 4 6 N/A
12:53 pm 12:53 Hazy 79 26.1 68 20 69 69 N 5 7 30.09 1019 5 8 N/A
1:53 pm 13:53 Hazy 82 27.8 65 18.3 56 56 NNW 5 7 30.08 1019 6 10 N/A
2:53 pm 14:53 Hazy 83 28.3 65 18.3 55 55 NNW 10 17 30.08 1019 6 10 N/A
3:53 pm 15:53 Mostly Cloudy 82 27.8 63 17.2 53 53 NNE 9 15 30.07 1018 8 13 N/A
4:53 pm 16:53 Mostly Sunny 81 27.2 62 16.7 53 53 N 10 17 30.06 1018 9 14 N/A
5:53 pm 17:53 Mostly Sunny 81 27.2 62 16.7 53 53 N 8 13 30.06 1018 9 14 N/A
6:53 pm 18:53 Mostly Sunny 79 26.1 62 16.7 56 56 N 8 13 30.07 1018 9 14 N/A
7:53 pm 19:53 Sunny 78 25.6 62 16.7 58 58 N 10 17 30.08 1019 9 14 N/A
8:53 pm 20:53 Sunny 75 23.9 61 16.1 62 62 N 7 11 30.09 1019 9 14 N/A
9:53 pm 21:53 Clear 69 20.6 63 17.2 81 81 E 3 6 30.11 1020 9 14 N/A
10:53 pm 22:53 Clear 66 18.9 63 17.2 90 90 N N/A 30.14 1021 8 13 N/A
11:53 pm 23:53 Clear 67 19.4 62 16.7 84 84 NNE 6 9 30.15 1021 9 14 N/A

Powered by AerisWeather